星链-1319 (STARLINK-1319 )

导读 | 豆包AI

STARLINK-1319是美国太空探索技术公司SpaceX星链星座的低轨互联网卫星,于2020年3月18日发射升空,属于星链早期组网批次卫星。它运行在近地轨道,承担全球互联网覆盖任务,依托星链星座部署,为偏远地区、海运、航空等场景提供宽带通信服务,是星链全球卫星互联网络的组成单元。

基本信息
目录编号:
45379
目录名称:
STARLINK-1319
国际标识:
2020-019V
轨道中心:
EARTH
卫星名称:
星链-1319
卫星全名:
星链-1319 (STARLINK-1319 )
卫星状态:
在轨 (已飞行2208 天)
发射日期:
2020-03-18 UTC
国别 :
美国 (US)
星等 :
--
轨道信息
数据来源 国际轨道数据
星历时间: 2026-04-04T03:18:07+0800
8小时前
查看轨道信息
半长轴: 6741.31km
偏心率: 0.0002784
轨道倾角: 53.045°
近地点辐角 134.026°
升交点赤经 6.131°
平近点角 226.099°
近地点: 361.296km
远地点: 365.05km
周期: 91.807分钟
每日圈数: 15.685067
详细信息
固有亮度:
5
最大亮度:
2.5
卫星平台:
Starlink V1.0
覆盖范围:
全球
运营商:
太空探索技术公司
运营商所在国:
美国
制造商(研发单位):
太空探索技术公司
制造商所在国:
美国
使用方式:
暂无
卫星简介
星链(Starlink)计划是由太空探索技术公司(SpaceX)提出的一个巨型低轨卫星互联网星座项目,计划在2019年至2024年间在太空搭建由约1.2万颗卫星组成的“星链”网络,其中1584颗将部署在地球上空550千米处的近地轨道,并从2020年开始工作。该卫星仍在工作。
2D轨道图
3D轨道图
轨道高度分析图
轨道倾角分析图
轨道综合分析图
查看轨道综合分析图